Welcome to the New NWS' Forecast!
Most changes are behind the scenes, but click here for differences you might notice.
Latest weather observations around

Bremerton, Bremerton National Airport (KPWT)

Using English Units (Switch to International System of Units)
Date/ Time (PST) Wind (mph) Vis. (mi) Weather Sky Cond. Temp (°F) Rel. Humidity Wind Chill (°F) Heat Index (°F) Pressure Precip. (in)
Air Dwpt 6 hour Altimeter (inHg) Sea level (inHg) 1 hr 3 hr 6 hr
Max Min
Jan 20 15:56 S 10 10 Light Rain BKN008 OVC041 43 41     93% 37   30.01 30.06 0   0
Jan 20 14:56 S 11 10 Light Rain BKN008 OVC024 43 41     93% 37   30.01 30.06 0    
Jan 20 13:56 S 15 10 Cloudy OVC008 43 41     93% 36   30.01 30.07 0    
Jan 20 12:56 S 14 10 Cloudy OVC006 42 40     92% 35   30.02 30.08 0 0  
Jan 20 11:56 S 11 10 Cloudy OVC006 41 40     96% 34   30.04 30.09 0    
Jan 20 11:46 S 13 10 Cloudy OVC006 41 39     93% 34   30.04   0    
Jan 20 11:33 S 10 9 Light Rain OVC004 41 39     93% 35   30.05   0    
Jan 20 10:56 S 9 10 Light Rain OVC006 41 40     96% 35   30.06   0    
Jan 20 10:21 SSW 11 8 Light Rain OVC006 41 39     93% 34   30.06   0    
Jan 20 09:56 SSW 10 10 Light Rain OVC004 40 39     97% 33   30.05 30.11 0   0
Jan 20 09:31 SSW 8 10 Cloudy OVC004 39 39     100% 34   30.04        
Jan 20 08:56 SSW 10 10 Cloudy BKN006 BKN033 OVC075 39 38     96% 32   30.04 30.09      
Jan 20 08:48 S 10 10 Cloudy BKN006 BKN017 OVC044 39 37     93% 33   30.03        
Jan 20 08:37 SSW 14 10 Cloudy SCT006 BKN037 OVC047 39 37     93% 31   30.03        
Jan 20 08:27 SSW 15 10 Cloudy BKN006 BKN039 OVC047 39 37     93% 31   30.03        
Jan 20 08:17 SSW 14 10 Cloudy SCT004 BKN016 OVC046 39 37     93% 31   30.02        
Jan 20 08:11 SSW 14 10 Cloudy BKN004 BKN017 OVC048 39 37     93% 31   30.02        
Jan 20 07:56 SSW 11 10 Mostly Cloudy BKN006 BKN018 39 38     96% 32   30.01 30.07      
Jan 20 07:25 SSW 13 10 Cloudy OVC008 39 37     93% 32   30.01        
Jan 20 06:56 S 9 10 Cloudy OVC005 39 38     96% 33   30 30.05      
Jan 20 05:56 SSW 8 10 Cloudy BKN005 OVC011 38 37     97% 32   30 30.06      
Jan 20 05:43 SSW 10 10 Cloudy SCT005 OVC011 37 37     100% 30   30.01        
Jan 20 05:02 SSW 9 10 Mostly Cloudy BKN005 BKN009 BKN100 37 37     100% 31   29.99        
Jan 20 04:56 SSW 11 10 Mostly Cloudy SCT005 BKN011 BKN100 38 37     97% 30   29.99 30.05      
Jan 20 03:56 S 11 10 Mostly Clear FEW007 37 36     96% 29   29.98 30.03 0   0
Jan 20 03:42 S 10 10 Partly Cloudy SCT007 37 36     93% 30   29.97   0    
Jan 20 03:32 SSW 10 10 Mostly Cloudy BKN007 37 36     93% 30   29.97   0    
Jan 20 02:56 S 9 10 Light Rain FEW007 BKN042 OVC050 38 37     97% 31   29.97 30.02 0    
Jan 20 02:47 S 9 10 Light Rain SCT007 BKN015 OVC037 39 37     93% 33   29.97   0    
Jan 20 02:36 S 11 10 Light Rain BKN009 BKN013 OVC023 39 37     93% 32   29.97   0    
Jan 20 02:34 SSW 13 10 Light Rain SCT009 BKN015 OVC031 39 37     93% 32   29.97   0    
Jan 20 02:17 SSW 13 10 Light Rain BKN006 BKN009 BKN023 39 39     100% 32   29.97   0    
Jan 20 01:56 SSW 14 10 Cloudy OVC004 41 40     96% 33   29.96 30.01      
Jan 20 00:56 S 11 10 Cloudy BKN004 OVC008 40 40     100% 33   29.94 29.99   0  
Jan 20 00:43 SSW 11 10 Mostly Cloudy BKN006 BKN010 39 39     100% 32   29.94        
Jan 19 23:56 S 14 10 Mostly Cloudy FEW007 SCT055 BKN100 40 39     97% 32   29.94 29.99 0    
Jan 19 23:52 S 15 10 Mostly Cloudy SCT007 BKN055 BKN100 39 39     100% 31   29.94   0    
Jan 19 23:09 SSW 15 10 Light Rain BKN009 BKN040 OVC047 41 39     93% 33   29.94   0    
Jan 19 22:56 SSW 13 10 Light Rain SCT007 BKN041 OVC048 41 39     93% 34   29.94 29.99 0    
Jan 19 22:48 SSW 15 10 Light Rain FEW007 BKN041 OVC048 41 39     93% 33   29.93   0    
Jan 19 22:23 SSW 18 10 Light Rain SCT006 OVC013 41 39     93% 32   29.92   0    
Jan 19 22:09 S 15 10 Light Rain SCT006 BKN016 OVC045 41 39     93% 33   29.92   0    
Jan 19 21:56 S 14 10 Light Rain BKN006 OVC016 41 40     96% 33   29.91 29.97 0   0
Jan 19 20:56 SSW 13 10 Light Rain OVC006 41 40     96% 34   29.91 29.96 0    
Jan 19 19:56 SSW 18 10 Light Rain OVC006 42 40     92% 34   29.89 29.95 0    
Jan 19 18:56 S 13 10 Light Rain OVC008 42 40     92% 35   29.88 29.93 0 0  
Jan 19 17:56 SSW 16 10 Light Rain OVC008 42 41     96% 34   29.88 29.93 0    
Notice The following observation data may not be complete
Jan 19 17:03   10 Light Rain BKN008 OVC014          %         0    
Jan 19 16:56 S 10 10 Light Rain SCT008 BKN012 OVC021 42 40     92% 36   29.88 29.93 0    
Jan 19 16:25 SSW 13 10 Light Rain SCT014 OVC022 43 39     87% 36   29.88   0    
Jan 19 15:56 SSW 14 10 Light Rain BKN014 OVC020 42 40     92% 35   29.87 29.92 0   0
Jan 19 15:44 S 8 10 Light Rain BKN014 OVC020 43 39     87% 38   29.87   0    
Jan 19 14:56 SSW 13 10 Light Rain OVC018 43 40     89% 36   29.86 29.91 0    
Jan 19 13:56 SSW 10 10 Light Rain OVC016 43 40     89% 37   29.86 29.92 0    
Jan 19 13:06 S 16 10 Light Rain FEW018 BKN024 OVC034 43 39     87% 35   29.87   0    
Jan 19 12:56 SSW 13 10 Light Rain SCT015 SCT026 OVC036 43 39     86% 36   29.88 29.93 0 0  
Jan 19 12:43 S 10 10 Light Rain SCT015 SCT024 OVC034 43 39     87% 37   29.88   0    
Jan 19 11:56 S 13 10 Light Rain BKN015 OVC032 42 39     89% 35   29.88 29.94 0    
Jan 19 10:56 S 11 10 Light Rain OVC015 42 39     89% 36   29.89 29.95 0    
Jan 19 09:56 S 11 10 Cloudy OVC015 41 38     89% 34   29.88 29.93 0   0
Jan 19 09:30 S 13 10 Cloudy OVC015 41 37     87% 34   29.87   0    
Jan 19 08:56 S 8 10 Light Rain OVC013 41 38     89% 36   29.86 29.92 0    
Jan 19 07:56 S 10 10 Light Rain OVC013 40 38     93% 33   29.85 29.9 0    
Jan 19 06:56 S 9 10 Light Rain OVC013 41 38     89% 35   29.83 29.89 0 0  
Jan 19 06:38 S 10 10 Light Rain OVC011 39 39     100% 33   29.83   0    
Jan 19 05:56 SSW 9 10 Light Rain OVC009 40 39     97% 34   29.83 29.88 0    
Jan 19 05:46 SSW 7 10 Light Rain OVC009 39 39     100% 34   29.83   0    
Jan 19 05:34 SSW 8 10 Cloudy OVC011 39 39     100% 34   29.83   0    
Jan 19 04:56 SSW 9 10 Light Rain OVC009 40 39     97% 34   29.83 29.88 0    
Jan 19 03:56 SSW 8 10 Cloudy OVC009 40 39     97% 34   29.82 29.87 0   0
Jan 19 03:34 S 6 10 Cloudy OVC009 39 39     100% 35   29.82   0    
Jan 19 02:56 SSW 6 10 Cloudy OVC011 40 38     93% 36   29.82 29.87      
Jan 19 02:21 S 10 10 Cloudy SCT009 BKN013 OVC047 39 37     93% 33   29.81        
Jan 19 02:13 S 8 10 Cloudy OVC011 39 39     100% 34   29.81        
Jan 19 01:56 S 10 10 Light Rain OVC009 40 39     97% 33   29.81 29.86 0    
Jan 19 01:17 SSW 8 10 Cloudy OVC009 39 39     100% 34   29.81        
Jan 19 00:56 SSW 9 10 Cloudy OVC011 40 39     97% 34   29.81 29.86 0 0  
Jan 18 23:56 SSW 9 10 Cloudy OVC013 40 38     93% 34   29.8 29.85 0    
Jan 18 22:56 SSW 8 10 Light Rain FEW011 BKN037 OVC046 40 39     97% 34   29.79 29.85 0    
Jan 18 22:49 SSW 10 10 Light Rain FEW009 BKN029 OVC050 39 39     100% 33   29.8   0    
Jan 18 22:41 S 9 10 Light Rain FEW009 SCT029 BKN044 39 37     93% 33   29.8   0    
Jan 18 21:13 S 7 10 Mostly Cloudy FEW009 BKN042 39 37     93% 34   29.78        
Jan 18 21:03 S 9 10 Cloudy SCT011 OVC042 39 37     93% 33   29.79        
Jan 18 20:56 S 9 10 Cloudy SCT009 BKN015 OVC047 40 39     97% 34   29.79 29.84 0    
Jan 18 20:43 S 6 10 Light Rain BKN011 BKN019 OVC031 41 39     93% 37   29.78   0    
Jan 18 19:56 SSW 10 10 Light Rain SCT033 BKN050 OVC110 41 39     93% 35   29.78 29.83 0    
Jan 18 19:40 S 7 10 Light Rain SCT013 BKN065 OVC110 41 39     93% 36   29.77   0    
Jan 18 19:21 SSW 7 8 Rain SCT008 BKN019 OVC026 39 39     100% 34   29.78   0    
Jan 18 19:08 SSW 6 10 Light Rain FEW019 OVC028 39 39     100% 35   29.78   0    
Jan 18 18:56 SW 8 10 Light Rain FEW020 BKN030 BKN049 40 39     97% 34   29.78 29.83 0 0  
Jan 18 17:56 S 8 10 Light Rain FEW024 SCT033 BKN041 40 38     93% 34   29.77 29.82 0    
Jan 18 17:51 S 5 10 Light Rain FEW021 SCT029 BKN041 39 37     93% 36   29.77   0    
Jan 18 17:06 WSW 9 6 Rain and Fog/Mist FEW017 BKN022 OVC044 39 37     93% 33   29.78   0    
Jan 18 16:56 SW 6 8 Rain SCT024 BKN035 BKN045 39 38     96% 35   29.78   0    
Jan 18 16:36 S 6 10 Light Rain FEW029 SCT038 39 37     93% 35   29.77   0    
Jan 18 15:56 WSW 13 10 Light Rain FEW019 BKN027 OVC055 41 38     89% 34   29.77 29.83 0   0
Jan 18 15:31 SSW 9 6 Fog/Mist FEW009 BKN029 OVC037 43 43     100% 37   29.76   0    
Jan 18 15:12 SSW 6 10 Light Rain FEW013 BKN023 OVC031 43 43     100% 39   29.76   0    
Jan 18 14:56 SSW 7 10 Light Rain BKN030 OVC038 43 41     93% 39   29.75   0    
Jan 18 14:07 SSW 10 10 Cloudy FEW012 BKN040 OVC055 43 41     93% 37   29.75   0    
Jan 18 13:56 SSW 10 10 Light Rain BKN012 BKN028 OVC038 43 41     93% 37   29.76   0    
Jan 18 13:03 SSW 10 10 Cloudy SCT029 OVC035 45 41     87% 39   29.77   0    
Jan 18 12:56 S 9 10 Cloudy BKN029 OVC035 44 41     89% 39   29.77   0 0  
Jan 18 12:31 SSW 14 10 Light Rain SCT016 BKN029 OVC038 45 43     93% 38   29.79   0    
Jan 18 11:56 SSW 10 10 Light Rain FEW037 SCT050 BKN075 46 41     82% 41   29.79   0    
Jan 18 10:56 S 7 10 Mostly Cloudy BKN060 46 42     86% 42   29.8 29.85      
Jan 18 09:56 S 8 10 Mostly Cloudy BKN060 44 41     89% 40   29.82 29.87 0   0
Jan 18 08:56 S 8 10 Light Rain FEW040 BKN048 BKN060 42 40     92% 37   29.82 29.87 0    
Jan 18 07:56 SSE 9 10 Light Rain FEW035 SCT042 BKN050 41 40     96% 35   29.8 29.86 0    
Jan 18 06:56 SSE 9 10 Mostly Clear FEW070 41 39     93% 35   29.79 29.84   0  
Jan 18 05:56 S 8 10 Mostly Cloudy FEW014 BKN033 BKN046 41 40     96% 36   29.78 29.84 0    
Jan 18 04:56 S 5 10 Light Rain FEW021 BKN035 OVC048 41 40     96% 38   29.77 29.83 0    
Jan 18 04:46 S 5 10 Light Rain FEW021 BKN043 OVC050 41 39     93% 38   29.78   0    
Jan 18 04:11 S 10 6 Light Rain and Fog/Mist FEW013 BKN023 OVC030 39 39     100% 33   29.78   0    
Jan 18 03:56 S 9 8 Light Rain FEW012 SCT017 OVC030 40 39     97% 34   29.79 29.84 0   0
Jan 18 02:56   6 Light Rain and Fog/Mist FEW011 BKN015 OVC029 41 39     93%     29.8 29.86 0    
Jan 18 02:45   6 Rain and Fog/Mist FEW009 BKN023 OVC036 43 39     87%     29.8   0    
Jan 18 01:56 SW 20 10 Light Rain FEW029 BKN034 OVC085 44 41     89% 36   29.77   0    
Jan 18 01:35 SW 10 10 Light Rain FEW012 BKN044 OVC085 45 41     87% 39   29.74   0    
Jan 18 01:18   10 Rain SCT012 BKN019 OVC035 45 41     87%     29.76   0    
Jan 18 01:12 WSW 16 8 Rain BKN014 BKN022 OVC029 45 43     93% 37   29.76   0    
Jan 18 01:04 WSW 17 8 Heavy Rain FEW011 BKN023 OVC029 45 41     87% 37   29.77   0    
Jan 18 00:56 SW 17 7 Rain FEW012 BKN028 OVC038 44 41     89% 36   29.78   0 0  
Jan 18 00:49   4 Heavy Rain and Fog/Mist FEW009 BKN028 OVC110 45 41     87%     29.77   0    
Jan 17 23:56 SW 14 10 Cloudy FEW029 OVC041 48 44     86% 42   29.76 29.81 0    
Jan 17 23:14 S 9 10 Light Rain SCT008 BKN034 OVC065 48 46     93% 44   29.74   0    
Jan 17 22:56 S 10 10 Cloudy BKN006 BKN024 OVC028 49 47     93% 45   29.74 29.79      
Jan 17 22:05 SSW 11 10 Mostly Cloudy BKN008 BKN032 BKN039 48 48     100% 43   29.74        
Jan 17 21:56 SSW 9 10 Mostly Cloudy SCT008 SCT033 BKN040 49 48     97% 45   29.73 29.78 0   0
Jan 17 21:08 S 9 10 Light Rain SCT006 BKN032 OVC041 48 48     100% 44   29.73   0    
Jan 17 20:56 SSW 16 10 Light Rain BKN006 BKN024 OVC042 49 48     97% 43   29.73 29.78 0    
Jan 17 19:56 S 8 10 Light Rain SCT006 OVC040 49 48     97% 45   29.73   0    
Jan 17 18:56 S 11 10 Rain FEW008 BKN034 OVC060 49 47     93% 44   29.74 29.79 0 0  
Jan 17 18:23 S 8 10 Light Rain FEW006 BKN045 OVC065 48 46     93% 45   29.74   0    
Jan 17 17:56 S 11 10 Light Rain BKN047 BKN060 49 47     93% 44   29.75 29.8 0    
Jan 17 17:37 S 10 8 Rain FEW013 BKN043 OVC050 48 46     93% 44   29.76   0    
Jan 17 17:26 S 7 10 Light Rain FEW010 BKN019 OVC055 48 46     93% 45   29.77   0    
Jan 17 17:17 S 11 8 Light Rain BKN012 BKN020 OVC050 48 46     93% 43   29.76   0    
Jan 17 17:10 S 9 7 Rain FEW002 BKN009 OVC029 46 46     100% 42   29.77   0    
Jan 17 16:56 SW 14 6 Light Rain and Fog/Mist FEW002 BKN014 OVC030 47 46     97% 41   29.78   0    
Jan 17 16:50 SSW 9 5 Rain and Fog/Mist FEW002 BKN014 OVC032 46 46     100% 42   29.76   0    
Jan 17 16:45 WSW 10 5 Heavy Rain and Fog/Mist FEW002 BKN030 OVC036 46 46     100% 41   29.77   0    
Jun 11 09:56 SSW 3 10 Cloudy OVC005 52 49     89%     30.06        
Jun 10 19:56 NNE 5 10 Clear CLR 62 45     53%     29.9 29.95      
Jun 10 15:56 WSW 3 10 Cloudy SCT046 OVC060 61 46     58%     29.86        
Notice The following observation data may not be complete
Jun 10 08:40   10 Cloudy OVC006          %              
Jun 10 02:15 WSW 7 10 Cloudy OVC004 48 46     93% 45   29.87        
Jun 09 16:56 SSW 8 10 Light Rain FEW026 58 46     65%     29.83 29.89 0   0
Jun 09 04:36 Calm 10 Cloudy SCT021 BKN028 OVC048 48 46     93%     29.93        
Jun 08 09:48 SSW 9 10 Light Rain BKN006 OVC030 55 54     94%     29.68   0    
Jun 08 04:56 SW 3 10 Light Rain SCT002 BKN010 OVC043 52 52     100%     29.64   0   0
Jun 07 09:56 Calm 10 Clear   67 49     52%     29.8        
Jun 06 02:56 E 5 10 Clear   54 43     66%     30.03        
Jun 05 16:56 ENE 9 10 Clear   71 39     31%   69 30.07